Weather History for Newton, KS

Change the Weather History Date:

Friday, June 14, 2013

  Actual Average Record
Temperature  
Mean Temperature 84 °F -  
Max Temperature 100 °F 80 °F 100 °F (2013)
Min Temperature 68 °F 60 °F 55 °F (1999)
Cooling Degree Days 19    
Growing Degree Days 34 (Base 50)    
Moisture  
Dew Point 63 °F    
Average Humidity 54    
Maximum Humidity 83    
Minimum Humidity 24    
Precipitation  
Precipitation 0.00 in - - ()
Sea Level Pressure  
Sea Level Pressure 29.94 in    
Wind  
Wind Speed 13 mph (South)    
Max Wind Speed 26 mph    
Max Gust Speed 33 mph    
Visibility 10 miles    
Events      
Averages and records for this station are not official NWS values.
T = Trace of Precipitation, MM = Missing Value Source: NWS Daily Summary

Daily Weather History Graph

Daily Weather History Graph

Search for Another Location

Airport:

Trip Planner

Search our weather history database for the weather conditions in past years. The results will help you decide how hot, cold, wet, or windy it might be!

Date:

Astronomy

Jun. 14, 2013 Rise Set
Actual Time 6:05 AM CDT 8:53 PM CDT
Civil Twilight 5:34 AM CDT 9:24 PM CDT
Nautical Twilight 4:54 AM CDT 10:04 PM CDT
Astronomical Twilight 4:10 AM CDT 10:49 PM CDT
Moon 11:37 AM CDT (6/14) 12:04 AM CDT (6/14)
Length of Visible Light 15h 50m
Length of Day
14h 47m
Waxing Crescent, 30% of the Moon is Illuminated
Jun 14
Waxing Crescent
Jun 16
First Quarter
Jun 23
Full
Jun 29
Last Quarter
Jul 8
New

Hourly Weather History & Observations

Time (CDT) Temp. Heat Index Dew Point Humidity Pressure Visibility Wind Dir Wind Speed Gust Speed Precip Events Conditions
12:15 AM 73.4 °F - 62.6 °F 69% 30.01 in 10.0 mi SE 13.8 mph 19.6 mph N/A   Clear
12:35 AM 73.4 °F - 62.6 °F 69% 30.01 in 10.0 mi SE 11.5 mph 18.4 mph N/A   Clear
12:55 AM 71.6 °F - 62.6 °F 73% 30.01 in 10.0 mi SE 11.5 mph - N/A   Clear
1:15 AM 71.6 °F - 62.6 °F 73% 30.01 in 10.0 mi SE 9.2 mph - N/A   Clear
1:35 AM 71.6 °F - 62.6 °F 73% 30.01 in 10.0 mi SE 8.1 mph - N/A   Clear
1:55 AM 69.8 °F - 62.6 °F 78% 30.01 in 10.0 mi SE 8.1 mph - N/A   Clear
2:15 AM 69.8 °F - 62.6 °F 78% 30.01 in 10.0 mi SE 6.9 mph - N/A   Clear
2:35 AM 69.8 °F - 62.6 °F 78% 30.01 in 10.0 mi SE 8.1 mph - N/A   Clear
2:55 AM 69.8 °F - 62.6 °F 78% 29.99 in 10.0 mi SE 9.2 mph - N/A   Clear
3:15 AM 69.8 °F - 62.6 °F 78% 29.99 in 10.0 mi SE 8.1 mph - N/A   Clear
3:35 AM 69.8 °F - 62.6 °F 78% 29.98 in 10.0 mi SE 8.1 mph - N/A   Clear
3:55 AM 69.8 °F - 62.6 °F 78% 29.98 in 10.0 mi SE 8.1 mph - N/A   Clear
4:15 AM 68.0 °F - 62.6 °F 83% 29.97 in 10.0 mi SSE 8.1 mph - N/A   Clear
4:35 AM 68.0 °F - 62.6 °F 83% 29.96 in 10.0 mi SSE 8.1 mph - N/A   Clear
4:55 AM 68.0 °F - 62.6 °F 83% 29.96 in 10.0 mi SSE 10.4 mph - N/A   Clear
5:15 AM 68.0 °F - 62.6 °F 83% 29.97 in 10.0 mi SSE 9.2 mph - N/A   Clear
5:35 AM 68.0 °F - 62.6 °F 83% 29.97 in 10.0 mi SSE 9.2 mph - N/A   Clear
5:55 AM 68.0 °F - 62.6 °F 83% 29.97 in 10.0 mi SSE 9.2 mph - N/A   Clear
6:15 AM 69.8 °F - 62.6 °F 78% 29.97 in 10.0 mi South 10.4 mph - N/A   Clear
6:35 AM 69.8 °F - 62.6 °F 78% 29.98 in 10.0 mi South 8.1 mph - N/A   Clear
6:55 AM 69.8 °F - 62.6 °F 78% 29.98 in 10.0 mi SSE 8.1 mph - N/A   Clear
7:15 AM 69.8 °F - 62.6 °F 78% 29.99 in 10.0 mi SSE 8.1 mph - N/A   Clear
7:35 AM 69.8 °F - 64.4 °F 83% 29.99 in 10.0 mi SSE 9.2 mph - N/A   Clear
7:55 AM 71.6 °F - 64.4 °F 78% 29.98 in 10.0 mi SSE 10.4 mph - N/A   Clear
8:15 AM 73.4 °F - 64.4 °F 73% 29.98 in 10.0 mi South 15.0 mph - N/A   Clear
8:35 AM 75.2 °F - 66.2 °F 73% 29.98 in 10.0 mi South 15.0 mph - N/A   Clear
8:55 AM 78.8 °F - 66.2 °F 65% 29.99 in 10.0 mi South 11.5 mph - N/A   Clear
9:15 AM 80.6 °F 82.7 °F 66.2 °F 61% 29.98 in 10.0 mi South 15.0 mph - N/A   Clear
9:35 AM 82.4 °F 85.4 °F 68.0 °F 62% 29.98 in 10.0 mi South 15.0 mph 19.6 mph N/A   Clear
9:55 AM 84.2 °F 87.3 °F 68.0 °F 58% 29.97 in 10.0 mi South 16.1 mph 19.6 mph N/A   Clear
10:15 AM 86.0 °F 89.4 °F 68.0 °F 55% 29.97 in 10.0 mi South 15.0 mph 20.7 mph N/A   Clear
10:35 AM 87.8 °F 91.4 °F 68.0 °F 52% 29.97 in 10.0 mi South 15.0 mph 21.9 mph N/A   Clear
10:55 AM 87.8 °F 91.4 °F 68.0 °F 52% 29.96 in 10.0 mi South 13.8 mph - N/A   Clear
11:15 AM 89.6 °F 93.4 °F 68.0 °F 49% 29.96 in 10.0 mi South 13.8 mph 20.7 mph N/A   Clear
11:35 AM 89.6 °F 93.4 °F 68.0 °F 49% 29.96 in 10.0 mi South 13.8 mph 21.9 mph N/A   Clear
11:55 AM 91.4 °F 95.4 °F 68.0 °F 46% 29.95 in 10.0 mi South 16.1 mph 21.9 mph N/A   Clear
12:15 PM 91.4 °F 96.8 °F 69.8 °F 49% 29.95 in 10.0 mi SSW 18.4 mph 21.9 mph N/A   Clear
12:35 PM 93.2 °F 97.7 °F 68.0 °F 44% 29.94 in 10.0 mi SSW 18.4 mph 26.5 mph N/A   Clear
12:55 PM 93.2 °F 97.7 °F 68.0 °F 44% 29.93 in 10.0 mi South 19.6 mph 26.5 mph N/A   Clear
1:15 PM 96.8 °F 100.7 °F 66.2 °F 37% 29.93 in 10.0 mi SSW 17.3 mph 27.6 mph N/A   Clear
1:35 PM 96.8 °F 99.0 °F 64.4 °F 34% 29.92 in 10.0 mi SSW 23.0 mph 28.8 mph N/A   Clear
1:55 PM 96.8 °F 99.0 °F 64.4 °F 34% 29.92 in 10.0 mi SSW 23.0 mph 28.8 mph N/A   Clear
2:15 PM 98.6 °F 100.0 °F 62.6 °F 30% 29.91 in 10.0 mi South 19.6 mph 27.6 mph N/A   Clear
2:35 PM 98.6 °F 100.0 °F 62.6 °F 30% 29.91 in 10.0 mi SSW 21.9 mph 33.4 mph N/A   Clear
2:55 PM 98.6 °F 100.0 °F 62.6 °F 30% 29.90 in 10.0 mi SSW 19.6 mph 31.1 mph N/A   Clear
3:15 PM 98.6 °F 99.4 °F 60.8 °F 29% 29.90 in 10.0 mi SSW 18.4 mph 29.9 mph N/A   Clear
3:35 PM 100.4 °F 101.3 °F 60.8 °F 27% 29.89 in 10.0 mi SSW 23.0 mph 28.8 mph N/A   Clear
3:55 PM 100.4 °F 101.3 °F 60.8 °F 27% 29.88 in 10.0 mi SSW 23.0 mph 29.9 mph N/A   Clear
4:15 PM 100.4 °F 101.3 °F 60.8 °F 27% 29.88 in 10.0 mi South 24.2 mph 29.9 mph N/A   Clear
4:35 PM 98.6 °F 98.5 °F 59.0 °F 27% 29.87 in 10.0 mi SSW 24.2 mph 32.2 mph N/A   Clear
4:55 PM 100.4 °F 99.7 °F 57.2 °F 24% 29.87 in 10.0 mi SSW 21.9 mph - N/A   Clear
5:15 PM 100.4 °F 99.7 °F 57.2 °F 24% 29.87 in 10.0 mi SSW 21.9 mph 31.1 mph N/A   Clear
5:35 PM 98.6 °F 97.6 °F 57.2 °F 25% 29.86 in 10.0 mi South 26.5 mph 32.2 mph N/A   Clear
5:55 PM 98.6 °F 97.2 °F 55.4 °F 24% 29.86 in 10.0 mi SSW 21.9 mph 27.6 mph N/A   Clear
6:15 PM 96.8 °F 95.8 °F 57.2 °F 27% 29.86 in 10.0 mi South 18.4 mph 27.6 mph N/A   Clear
6:35 PM 95.0 °F 93.7 °F 57.2 °F 28% 29.86 in 10.0 mi SSW 17.3 mph 26.5 mph N/A   Clear
6:55 PM 95.0 °F 93.7 °F 57.2 °F 28% 29.86 in 10.0 mi SSW 23.0 mph 27.6 mph N/A   Clear
7:15 PM 93.2 °F 91.3 °F 55.4 °F 28% 29.87 in 10.0 mi SSW 20.7 mph 26.5 mph N/A   Clear
7:35 PM 91.4 °F 89.9 °F 57.2 °F 31% 29.88 in 10.0 mi SSW 15.0 mph - N/A   Clear
7:55 PM 91.4 °F 89.9 °F 57.2 °F 31% 29.88 in 10.0 mi SSW 19.6 mph 27.6 mph N/A   Clear
8:15 PM 89.6 °F 88.9 °F 59.0 °F 36% 29.89 in 10.0 mi SSW 17.3 mph 27.6 mph N/A   Clear
8:35 PM 87.8 °F 87.6 °F 60.8 °F 40% 29.90 in 10.0 mi SSW 15.0 mph 23.0 mph N/A   Clear
8:55 PM 86.0 °F 86.1 °F 60.8 °F 43% 29.90 in 10.0 mi SSW 15.0 mph 18.4 mph N/A   Clear
9:15 PM 84.2 °F 85.0 °F 62.6 °F 48% 29.91 in 10.0 mi South 16.1 mph - N/A   Clear
9:35 PM 84.2 °F 85.0 °F 62.6 °F 48% 29.91 in 10.0 mi SSW 16.1 mph - N/A   Clear
9:55 PM 82.4 °F 83.4 °F 62.6 °F 51% 29.92 in 10.0 mi SSW 15.0 mph 19.6 mph N/A   Clear
10:15 PM 82.4 °F 83.4 °F 62.6 °F 51% 29.93 in 10.0 mi SSW 12.7 mph - N/A   Clear
10:35 PM 82.4 °F 83.4 °F 62.6 °F 51% 29.94 in 10.0 mi South 10.4 mph - N/A   Clear
10:55 PM 80.6 °F 81.8 °F 62.6 °F 54% 29.94 in 10.0 mi South 10.4 mph - N/A   Clear
11:15 PM 80.6 °F 82.3 °F 64.4 °F 58% 29.95 in 10.0 mi SSW 11.5 mph - N/A   Clear
11:35 PM 80.6 °F 82.3 °F 64.4 °F 58% 29.95 in 10.0 mi South 10.4 mph - N/A   Clear
11:55 PM 78.8 °F - 64.4 °F 61% 29.96 in 10.0 mi South 10.4 mph - N/A   Clear